Theta_e
347 346 345 343 340 338 335 336 338 336 332 328 326 326 330 334 335 337 342 343 341 341 339 336 333 331 332 333 332 331 332 331 331 331 332 333 332 333 334 333 331 330 330 330 329 326 323 319 319 320 323 328 329 326 326 325 322 321 321 318 315 315 313 312 311 310 322 333 332 329 325 319 317 315 314 314 317 317 317 321 318 313 314 315 314
347 344 345 342 340 339 336 336 336 336 332 329 326 327 330 333 335 334 339 343 342 342 338 335 332 331 332 333 332 332 332 332 331 331 332 333 333 333 334 333 334 333 332 331 329 328 326 323 324 324 325 329 330 330 329 325 322 322 324 319 315 315 312 311 308 312 328 334 332 328 322 319 318 316 314 314 317 317 316 322 320 314 313 314 314
346 344 344 342 340 340 336 336 335 334 332 328 326 327 330 332 334 333 337 342 343 341 338 334 333 332 332 333 333 332 332 332 331 332 333 333 333 333 333 333 335 335 334 332 330 330 328 325 326 328 326 327 329 332 331 326 323 321 321 318 315 313 310 310 307 315 329 330 328 323 319 318 317 315 314 313 313 314 314 316 315 312 311 312 312
346 344 343 342 341 339 336 335 334 333 331 327 326 328 329 331 334 333 336 340 343 341 337 333 333 333 332 333 333 332 332 332 332 332 334 334 333 333 333 334 335 335 335 334 332 331 329 326 327 330 329 327 327 331 333 328 324 321 319 317 313 311 309 308 307 317 328 328 328 326 324 319 315 314 313 313 312 312 313 312 311 310 310 311 311
345 344 343 343 341 340 337 336 334 332 329 326 328 329 330 331 333 334 336 338 341 340 336 333 334 333 332 333 333 332 332 332 331 332 333 334 333 333 334 334 336 335 335 334 333 332 331 329 329 331 330 330 328 329 333 329 324 322 318 315 312 310 308 307 310 321 329 331 331 332 329 321 314 314 312 313 313 312 312 312 312 311 310 309 309
344 343 343 343 343 340 337 336 335 332 329 327 328 329 330 331 332 335 337 339 341 340 337 335 335 333 332 332 332 332 332 331 331 332 333 334 334 334 335 335 335 335 334 334 333 332 331 331 331 332 330 331 329 328 333 329 324 323 319 314 310 309 307 307 314 325 330 332 332 333 331 325 319 315 314 314 313 313 313 313 312 311 311 309 309
345 343 342 343 344 340 337 336 335 332 330 328 328 327 329 330 332 336 338 341 341 339 337 336 335 333 332 331 332 331 331 330 331 332 333 334 334 335 336 336 335 335 333 333 333 331 331 332 331 330 329 330 328 329 333 329 323 322 320 314 309 308 307 307 315 326 331 332 332 332 333 329 322 317 314 314 314 313 313 313 313 312 311 310 309
345 343 341 343 343 340 337 335 334 332 330 329 329 327 328 329 331 335 339 341 341 340 338 336 335 332 331 331 331 331 331 329 330 332 333 334 335 335 335 336 335 334 334 333 332 330 331 330 329 329 328 328 329 332 333 329 324 323 321 314 309 307 307 307 312 324 330 332 332 333 333 328 321 319 315 315 315 314 313 312 312 312 311 310 309
345 343 343 344 342 340 337 334 332 330 330 329 329 328 327 329 331 334 338 341 341 340 339 337 334 332 331 331 331 331 330 328 328 331 333 332 334 336 334 334 335 335 334 332 330 330 330 329 327 329 328 327 331 334 332 330 325 322 321 316 312 307 308 307 311 325 331 332 332 333 332 329 322 318 316 315 315 314 313 312 312 312 311 311 309
344 343 343 343 341 340 337 334 332 330 330 329 328 328 327 328 331 333 338 341 342 340 338 337 334 332 332 331 332 331 329 327 327 331 333 332 332 333 332 332 333 333 331 330 329 328 328 327 327 329 328 327 332 335 332 330 326 323 321 319 313 310 309 306 315 329 333 332 333 332 332 333 326 317 314 315 315 314 314 314 313 311 310 310 309
343 343 343 342 341 340 337 335 334 331 331 330 328 328 328 328 329 332 336 339 341 340 337 336 334 334 333 332 332 330 328 327 328 331 332 330 330 330 330 330 330 330 329 327 326 325 324 325 328 328 326 326 331 334 333 330 327 323 322 321 315 311 309 309 324 333 334 333 329 328 329 332 325 312 314 315 314 314 315 314 312 311 310 310 309
342 342 340 340 340 339 338 336 335 333 332 330 329 328 329 328 328 331 334 337 338 338 336 335 334 334 333 332 331 329 327 328 330 331 329 327 327 328 328 328 328 328 326 325 323 323 323 324 328 327 323 325 331 334 334 330 327 325 323 322 316 312 308 315 330 333 334 332 325 328 332 331 320 310 314 315 314 314 315 313 312 311 310 310 309
342 341 339 340 340 339 338 336 335 335 333 330 330 330 330 328 328 329 330 333 335 335 335 335 334 333 331 330 329 328 328 328 331 330 327 326 326 327 326 326 326 326 324 324 323 323 323 323 325 325 320 324 331 333 333 330 327 327 324 322 316 311 308 317 329 332 334 329 326 332 334 330 316 309 313 315 315 314 315 313 312 311 309 310 309
342 340 339 339 339 339 338 336 336 336 333 332 332 332 332 329 327 326 326 329 333 334 334 334 333 332 331 330 329 328 329 330 331 328 326 326 325 325 325 324 325 324 324 324 324 323 323 322 322 321 318 323 330 332 333 330 327 327 325 324 317 311 310 319 328 332 334 331 332 333 332 327 314 309 312 317 317 315 316 314 311 310 309 309 307
341 339 338 337 337 338 339 337 336 337 333 331 333 334 333 331 327 325 323 324 330 333 333 333 333 331 330 330 329 329 329 330 331 326 324 325 324 324 324 324 325 324 324 323 324 324 323 323 321 317 317 324 330 332 332 330 327 325 325 324 318 310 311 319 326 330 332 332 332 332 331 323 312 310 313 317 316 314 314 313 311 309 308 307 307
337 337 336 335 334 335 339 338 337 336 331 326 330 333 333 332 328 324 322 321 327 331 332 332 332 331 330 329 329 330 329 329 329 326 324 325 324 324 325 325 324 324 323 322 323 323 324 323 321 317 319 327 331 330 330 329 326 324 324 324 319 311 315 323 326 327 329 332 331 332 331 320 312 311 313 317 315 312 312 311 310 308 308 307 307
331 333 333 333 332 333 336 338 337 335 333 328 331 334 334 333 329 326 322 320 324 329 331 331 331 329 328 328 329 330 327 326 327 325 323 325 325 325 326 325 324 324 322 321 321 320 323 323 320 320 321 326 330 328 328 327 325 324 322 323 320 312 319 326 325 327 330 332 332 333 330 317 312 313 314 317 313 312 312 310 309 307 307 306 307
325 327 330 331 332 333 334 335 335 335 335 335 335 336 335 334 331 328 321 319 323 327 329 329 328 328 327 329 330 328 325 323 324 323 324 325 326 327 326 324 324 323 320 320 318 317 322 322 319 320 321 322 324 325 325 326 326 324 322 322 320 314 318 324 326 329 329 330 333 332 329 317 310 314 317 318 313 311 311 309 308 307 307 307 307
321 324 327 328 330 331 331 332 333 334 335 336 338 337 335 334 332 329 321 321 324 326 328 327 327 327 328 329 328 325 322 322 321 321 324 325 326 327 326 324 323 321 319 318 315 318 322 319 316 318 322 323 321 319 320 324 325 323 322 320 320 315 312 319 328 329 323 327 333 330 329 319 309 311 316 317 313 310 310 309 307 306 306 307 307
319 320 323 326 328 328 329 332 333 334 335 335 337 337 336 334 333 329 320 320 323 324 325 324 325 325 326 326 325 323 322 322 319 320 324 325 326 326 325 324 322 320 319 316 315 320 321 317 314 314 322 325 320 316 316 321 323 322 321 318 320 315 310 322 330 328 325 327 330 328 325 317 308 308 311 314 312 309 309 308 307 307 306 306 307
320 320 320 322 325 327 329 332 332 332 335 336 336 337 335 334 333 329 321 318 318 318 320 322 324 324 324 324 323 323 325 325 322 323 325 326 325 324 325 324 322 320 319 318 319 321 319 316 315 315 320 321 318 316 315 318 321 318 317 316 318 313 317 329 328 326 329 326 325 327 320 310 307 308 309 310 310 309 308 307 307 307 306 307 307
321 321 320 320 321 325 327 330 331 330 333 335 336 336 335 334 333 331 327 322 317 315 318 323 325 325 325 325 325 327 329 329 327 328 329 328 327 324 324 324 322 321 320 320 321 321 319 316 316 316 318 319 320 321 320 318 316 314 314 315 315 317 327 329 324 327 329 326 325 325 316 306 306 307 308 309 308 308 308 307 307 307 306 306 306
319 321 320 319 320 322 324 327 331 332 334 336 335 335 334 333 333 332 332 329 325 319 318 323 326 327 327 326 327 329 332 332 331 331 332 331 330 326 325 324 323 322 321 321 321 321 319 318 319 320 321 323 325 326 327 324 318 314 312 312 315 324 332 326 322 328 328 329 325 320 316 305 305 308 307 308 308 308 307 306 307 307 306 306 306
317 321 320 316 318 320 322 324 327 331 335 337 337 336 334 333 333 333 333 332 331 326 321 325 329 330 330 330 330 331 333 334 334 333 333 332 331 328 327 325 324 323 322 322 323 322 321 321 322 323 324 327 328 327 328 329 327 322 312 312 321 329 332 325 324 329 330 329 321 316 314 304 305 309 308 307 307 307 307 306 307 306 306 306 306
317 320 319 316 317 318 320 322 324 327 332 335 337 337 334 334 335 335 335 332 331 330 328 330 332 332 332 334 333 332 333 335 335 334 333 333 332 330 328 328 328 326 323 325 326 324 324 326 325 326 327 327 327 326 327 329 331 329 321 321 328 330 330 327 327 332 332 329 322 316 311 304 306 308 308 308 306 307 307 306 307 307 306 306 305
317 319 319 317 317 318 318 320 323 324 327 332 334 334 334 335 335 335 335 333 333 333 332 332 333 333 333 335 335 334 334 335 334 334 333 333 333 332 329 328 330 329 325 328 330 327 328 329 328 328 329 328 326 326 327 329 330 331 329 328 330 330 330 329 329 331 331 331 325 316 308 304 305 307 309 308 306 307 307 307 307 307 306 306 306
318 318 319 317 316 317 318 320 321 322 324 328 330 332 334 335 335 335 334 334 334 334 335 334 333 333 333 334 335 335 335 336 335 334 334 334 335 334 331 328 331 333 328 330 332 329 330 331 330 329 329 328 327 326 327 328 330 331 330 329 330 329 329 329 330 329 330 331 326 317 309 304 305 307 309 311 309 307 306 307 307 307 307 306 306
318 318 318 317 316 316 318 318 318 319 323 326 328 329 332 332 332 335 335 334 333 334 337 336 334 333 331 332 335 335 335 335 335 335 335 334 335 334 332 330 332 334 329 330 332 331 331 331 331 330 329 328 327 327 327 327 329 330 330 330 330 330 329 329 331 329 330 330 326 319 312 305 305 306 308 312 313 309 306 307 307 307 307 306 306
319 318 317 317 317 316 316 316 316 320 320 322 326 327 329 327 326 330 334 335 334 334 336 335 336 335 333 333 335 335 335 335 334 335 335 332 334 334 333 332 332 333 331 331 332 332 332 332 332 331 330 329 327 327 326 326 328 329 330 331 330 330 330 329 330 329 330 330 328 324 317 311 309 307 307 309 314 313 310 309 307 307 307 306 306
319 319 317 317 316 316 317 315 316 319 320 321 325 325 326 325 323 324 328 332 334 335 335 334 333 334 333 334 336 336 335 335 334 335 334 333 334 335 334 333 333 334 333 332 331 332 332 332 332 332 331 329 328 327 327 326 327 328 329 330 331 330 330 329 330 329 329 330 330 328 324 319 314 309 308 308 311 314 312 313 310 307 308 307 306
320 319 317 317 316 316 317 316 312 314 320 321 321 322 323 324 322 323 324 325 328 332 334 334 332 331 332 333 334 336 336 335 333 334 334 333 333 333 334 334 333 334 335 333 332 331 331 331 331 331 330 329 328 328 328 327 326 327 328 330 331 331 331 331 329 329 329 330 329 330 329 325 319 313 310 308 309 312 312 314 312 307 307 307 306
320 318 316 315 314 314 314 314 309 309 316 318 319 320 320 322 320 322 323 319 320 322 325 330 333 332 332 332 333 334 336 334 332 333 333 332 331 333 333 334 334 334 335 334 332 332 331 331 331 330 330 329 328 327 328 327 327 327 327 329 331 332 332 331 331 330 329 329 329 329 329 327 322 315 312 309 308 310 309 313 315 310 307 307 307
317 315 316 314 311 312 311 313 310 307 311 313 316 317 316 319 319 320 320 316 320 320 316 320 325 330 332 332 333 333 334 333 333 333 333 331 331 332 333 334 335 335 336 334 333 333 332 331 331 331 330 329 328 327 327 327 327 327 327 328 330 332 332 330 331 331 330 329 328 328 329 328 325 319 314 311 309 310 308 312 317 314 308 307 307
316 316 316 314 311 310 311 313 312 310 309 308 312 314 312 316 317 317 314 312 320 322 319 315 315 320 323 326 330 333 334 333 333 331 331 331 331 333 333 333 335 335 335 335 334 334 333 332 331 331 331 329 327 327 327 327 326 326 327 327 328 331 331 331 331 331 330 329 328 328 328 328 328 324 319 314 311 309 308 309 313 314 309 307 307
317 317 316 314 312 312 313 311 309 309 308 307 309 310 309 313 315 313 310 311 316 322 322 317 316 317 315 316 321 327 331 332 333 332 331 331 331 333 333 332 335 335 334 334 335 336 334 332 332 331 330 329 328 327 327 327 326 326 326 327 327 329 331 331 331 330 330 329 328 328 327 328 328 328 326 322 317 313 310 308 308 311 310 307 307
318 318 316 315 312 311 312 310 308 308 307 307 307 307 306 311 313 309 307 309 313 320 321 316 320 321 317 317 316 318 323 325 329 332 333 333 331 331 331 331 332 332 333 333 333 334 334 333 331 331 331 330 329 327 327 326 326 326 326 327 327 327 329 331 331 330 330 329 328 327 327 327 327 328 328 327 325 321 315 310 308 311 313 311 308
320 319 316 316 314 309 310 310 308 308 308 308 307 308 307 312 316 312 309 309 311 316 317 317 321 322 321 320 316 314 316 318 323 326 330 333 332 331 331 331 330 330 331 333 332 331 332 333 332 330 330 331 330 329 327 327 326 326 326 326 326 326 328 329 329 329 329 328 328 327 327 327 327 327 327 327 328 326 322 315 311 310 312 313 311
321 321 319 318 317 312 309 308 308 309 309 308 309 311 311 313 317 316 314 314 315 312 311 318 320 320 321 318 314 314 314 315 318 318 322 328 332 333 332 332 331 331 331 331 332 331 330 331 332 332 332 331 331 330 328 327 326 325 326 326 326 326 327 327 328 328 328 328 328 327 326 326 326 326 326 327 327 327 326 322 316 312 311 312 312
322 322 321 321 320 318 312 308 308 310 310 310 312 314 313 313 314 315 314 315 317 314 313 317 317 319 319 311 310 313 313 315 315 316 317 321 328 333 334 333 332 332 331 331 332 331 330 329 329 330 333 333 332 332 330 329 327 325 325 326 326 327 326 327 327 328 328 328 327 326 326 326 326 326 326 326 326 326 327 325 321 317 312 311 311
323 322 322 321 322 321 315 311 310 310 312 314 315 314 313 312 312 313 312 312 314 315 318 317 316 318 316 308 309 310 311 313 313 315 317 319 323 328 332 333 332 333 333 332 331 329 329 329 329 329 329 332 334 334 332 330 327 326 325 325 326 327 327 327 327 327 327 327 327 326 326 326 326 326 326 326 326 326 327 327 325 323 318 311 310
323 322 322 322 321 321 319 316 312 311 315 316 315 313 312 312 312 312 311 312 312 313 318 319 315 313 309 308 311 310 309 310 311 313 315 317 319 322 326 330 331 332 333 333 332 330 329 330 331 329 326 329 332 334 333 330 328 327 325 325 327 327 327 327 326 327 327 327 327 326 326 325 326 327 326 327 327 327 326 327 327 326 324 320 315
323 323 322 322 322 322 322 320 315 312 313 314 315 313 311 311 311 311 310 312 311 308 311 313 312 311 309 310 311 312 312 311 312 313 313 316 318 318 320 322 324 326 328 332 332 332 332 332 332 330 326 328 331 333 333 331 329 328 327 326 327 327 327 327 327 327 327 327 327 326 326 325 326 326 326 326 327 327 326 327 327 326 326 326 322
323 323 322 322 322 321 322 321 318 316 314 312 315 314 311 311 310 310 309 310 310 306 307 310 313 316 316 315 315 314 313 312 315 317 316 317 319 320 320 320 321 321 322 326 329 332 333 333 333 332 330 330 331 332 332 330 329 329 327 327 328 328 328 328 328 328 327 327 327 326 326 326 326 326 327 327 326 327 326 326 327 326 326 326 326
322 322 322 322 322 322 321 322 319 317 315 312 313 313 310 311 310 309 309 310 311 310 312 314 315 317 317 317 316 313 310 313 316 318 319 319 320 321 321 321 322 322 321 320 322 326 330 333 333 332 332 332 332 332 331 330 330 329 328 327 327 327 328 328 328 328 327 327 327 326 326 326 326 326 327 327 327 327 326 326 327 327 326 326 327
321 322 323 322 321 321 321 322 319 316 315 313 313 312 313 314 312 313 313 313 315 313 311 309 309 313 316 316 314 311 312 315 316 317 318 319 320 321 321 322 323 324 324 323 321 319 321 328 332 332 332 332 332 332 332 331 330 329 328 328 327 327 328 328 329 329 328 327 327 327 327 327 327 326 326 326 326 326 326 326 326 326 327 326 326
321 321 322 322 321 321 321 322 320 317 314 314 313 313 314 314 313 314 314 314 315 312 308 306 305 307 311 312 312 313 314 315 315 316 318 319 319 320 321 321 322 323 324 325 325 322 318 321 326 331 332 334 333 332 331 330 329 329 328 328 327 328 328 327 329 330 330 329 328 327 327 328 327 327 326 326 326 326 326 326 326 325 326 326 326
320 321 321 322 321 321 321 321 320 317 315 314 314 313 314 314 311 311 311 312 313 310 306 306 306 305 306 307 311 314 315 315 316 316 317 318 318 319 319 320 321 322 323 324 325 326 324 320 319 324 329 332 333 333 332 329 327 329 329 327 327 327 327 328 328 329 329 330 329 328 328 328 328 327 326 326 326 326 325 325 325 325 325 326 326
319 320 322 321 318 320 322 321 319 318 315 314 315 314 315 314 311 309 311 312 310 308 307 307 306 305 305 305 307 311 314 315 316 316 316 317 318 318 318 319 319 320 321 322 324 325 326 324 319 320 323 326 329 332 332 328 327 328 328 327 327 326 326 327 328 329 328 329 330 329 329 328 327 327 326 326 325 325 325 324 324 324 325 325 326
319 320 321 317 314 319 320 318 318 317 315 315 315 314 314 313 311 311 312 311 307 307 309 308 306 306 305 305 305 306 309 311 313 315 315 316 317 317 317 318 318 319 319 320 321 323 324 325 323 323 323 324 326 328 328 327 327 329 328 327 327 326 326 326 327 328 329 328 329 330 329 328 327 327 326 325 325 325 325 325 324 324 325 325 325
319 321 320 314 313 316 317 316 317 317 315 314 315 314 314 313 311 310 309 308 307 307 308 307 306 306 306 305 305 304 306 307 308 310 311 313 314 315 316 317 317 318 318 319 320 321 322 322 322 324 325 324 324 326 327 328 329 330 328 327 327 326 326 325 326 327 328 328 328 328 329 329 328 327 326 326 326 326 325 325 325 324 324 324 324
321 322 318 313 313 314 314 315 316 316 315 314 315 315 315 313 311 310 308 307 307 307 307 307 306 306 306 305 305 305 305 305 305 306 307 307 308 310 313 315 316 317 317 318 319 319 320 320 321 322 324 324 324 325 328 331 331 330 329 327 327 327 326 325 325 326 327 328 328 328 328 327 328 328 327 327 326 326 325 325 325 324 324 324 323
Wind_Speed
6 4 5 6 6 7 6 5 4 5 6 6 5 4 5 6 7 8 10 11 10 11 13 15 15 14 12 10 9 9 7 7 6 6 6 7 8 9 11 12 12 13 14 15 13 12 10 9 8 8 7 4 4 5 5 4 5 7 8 9 11 13 14 13 11 12 15 17 17 18 19 19 20 20 19 17 16 16 17 15 13 13 13 13 13
5 4 4 6 8 7 7 6 5 5 6 7 6 4 5 6 7 7 9 11 10 11 14 16 16 14 12 10 9 8 7 7 6 6 6 7 8 9 10 12 12 12 13 14 13 12 11 9 8 9 9 8 7 7 6 6 7 9 9 9 11 13 14 13 11 13 16 17 16 18 19 19 19 19 18 16 15 16 16 14 11 11 12 13 12
4 3 4 6 9 9 8 8 6 7 7 7 6 4 5 6 7 7 8 11 11 12 14 17 16 14 12 10 9 8 7 7 7 7 6 7 8 9 10 11 11 11 11 13 13 12 10 8 8 9 9 9 7 6 7 7 8 8 9 9 10 13 14 12 11 12 16 16 16 18 18 18 18 19 18 16 17 16 14 12 12 13 14 13 13
4 3 4 6 10 10 9 9 8 8 8 6 6 4 5 5 6 7 8 11 12 14 16 16 15 14 13 11 10 9 8 7 7 8 7 7 9 9 9 11 11 10 11 13 12 11 9 7 7 7 8 9 8 7 7 6 8 8 8 8 10 12 12 11 9 12 19 19 18 16 13 15 17 19 18 17 17 15 13 13 14 14 14 14 13
4 3 3 6 9 11 9 9 9 10 9 7 6 4 4 5 4 5 7 10 12 16 17 16 14 14 13 12 10 9 8 6 6 8 8 8 9 9 9 11 10 9 10 12 11 10 9 7 6 7 7 8 7 6 6 5 7 7 8 9 10 11 11 9 9 15 23 22 20 14 9 11 16 18 17 17 16 14 14 14 14 14 14 13 13
5 2 3 5 9 12 10 9 9 10 10 8 6 5 4 5 4 3 6 9 11 16 18 17 15 13 13 12 10 9 8 5 5 7 8 9 10 9 9 11 10 8 9 11 10 8 7 6 6 7 6 6 6 6 6 4 6 6 7 10 11 11 10 9 11 17 22 21 18 11 7 8 11 16 16 16 16 14 13 13 13 13 14 13 13
5 3 4 5 8 12 11 9 10 10 11 10 8 7 5 5 4 4 5 8 13 16 18 18 15 13 13 12 10 8 6 5 6 6 8 9 9 9 8 9 9 8 8 10 9 7 6 6 6 6 5 5 6 7 6 4 5 6 7 10 12 11 10 10 11 16 21 20 13 8 8 6 8 14 15 15 15 14 13 13 13 13 14 14 13
7 5 5 5 8 13 12 11 11 11 11 10 9 7 5 6 5 6 5 8 14 16 17 19 15 14 13 11 10 8 6 5 6 8 9 8 8 8 7 8 7 8 8 9 7 6 5 5 4 4 4 5 8 8 7 5 6 6 6 10 12 12 10 10 9 12 18 16 9 7 7 5 7 13 14 15 14 13 13 12 13 13 13 13 13
8 7 7 7 12 15 13 13 12 11 11 11 9 7 5 5 5 5 6 8 13 15 17 19 17 15 13 12 11 9 8 7 7 9 10 8 8 9 7 7 8 8 9 7 6 5 5 4 4 4 4 6 10 9 7 6 6 7 6 9 12 12 10 9 9 11 14 11 9 7 8 5 4 11 14 14 13 13 13 12 12 13 12 12 13
8 8 8 10 16 18 16 15 14 13 12 11 10 7 5 5 6 6 7 10 13 15 18 19 17 15 14 13 11 10 9 8 8 10 10 9 9 8 7 7 8 9 8 6 5 5 4 3 4 5 4 8 11 9 8 6 6 7 6 8 10 11 9 8 8 11 10 8 8 7 11 8 2 9 13 13 13 13 12 12 12 11 11 12 12
9 9 8 12 18 19 18 16 15 14 13 12 12 9 6 5 6 7 9 12 14 16 18 17 14 14 14 13 11 10 8 8 9 11 11 9 8 8 7 7 8 8 7 5 5 4 3 4 5 5 6 10 11 9 8 6 6 8 7 7 9 10 9 9 10 9 7 5 8 9 11 8 3 8 13 13 13 12 11 10 10 11 11 12 12
10 10 9 11 17 20 17 15 14 14 14 14 13 11 9 6 6 8 9 11 13 15 16 14 12 13 13 13 11 9 9 9 10 12 11 9 8 8 7 7 7 7 5 5 5 3 4 4 5 5 7 11 12 10 8 6 6 7 8 8 9 11 10 11 11 6 5 4 8 13 9 4 4 7 12 13 12 11 10 10 10 11 12 12 12
12 11 10 9 13 17 16 15 15 13 14 13 13 12 11 10 8 9 10 11 12 13 13 13 12 13 13 12 11 9 10 10 11 13 11 9 8 8 8 7 6 6 5 5 5 4 4 4 5 5 7 12 13 11 8 6 6 5 7 8 10 11 11 11 11 5 4 4 9 12 4 6 5 7 11 12 11 10 10 9 10 11 12 12 12
14 14 14 13 9 14 16 16 15 14 14 13 11 10 11 12 11 10 11 12 14 14 13 13 13 14 13 12 10 10 11 10 12 12 9 9 8 8 7 7 7 6 6 6 5 5 6 6 6 5 7 12 13 11 9 7 6 5 6 8 10 12 13 12 9 4 4 4 7 7 3 5 6 8 11 11 10 10 9 9 10 11 12 12 12
15 15 17 20 15 10 16 16 16 15 12 11 10 8 10 13 13 12 11 12 14 15 15 14 14 14 13 12 11 11 12 11 13 11 9 9 8 8 7 8 8 7 7 7 6 6 6 7 6 4 8 14 13 11 10 8 6 5 6 8 10 12 14 14 7 3 4 4 6 6 2 4 5 7 11 10 9 9 9 9 9 11 11 11 11
15 15 17 20 19 13 11 14 17 16 10 9 10 10 11 13 14 12 11 12 14 15 16 15 15 15 14 14 12 13 13 12 13 10 9 9 8 8 8 8 9 8 8 7 7 7 7 7 6 4 9 14 13 11 10 8 7 6 6 8 10 12 14 15 8 3 3 3 5 5 5 4 3 5 10 9 8 8 8 9 9 10 10 10 10
15 14 15 18 19 17 15 13 17 16 10 10 11 13 13 13 14 13 11 12 14 15 16 16 16 16 15 14 13 14 13 11 12 11 9 9 9 8 8 9 9 9 8 7 7 7 7 6 5 5 9 12 11 10 8 7 7 7 7 8 10 13 15 14 9 3 4 5 6 4 7 4 4 5 8 8 7 8 8 9 9 10 10 9 9
15 14 13 15 17 18 18 15 15 14 11 11 12 13 13 13 14 12 11 12 14 16 17 17 17 16 16 15 14 15 13 12 12 11 10 10 10 8 9 9 9 9 7 6 6 7 7 6 6 6 8 9 9 8 7 7 7 8 8 8 10 13 15 12 10 1 4 6 6 5 9 5 4 4 7 7 7 7 8 9 8 9 9 8 8
14 15 13 12 12 14 16 14 13 12 12 12 13 14 13 15 15 12 11 13 15 16 17 17 17 16 16 15 15 14 13 13 13 12 12 12 11 9 10 9 9 8 6 5 6 7 7 6 6 7 8 7 7 7 8 8 8 9 8 9 8 10 12 8 7 1 1 5 3 8 10 6 4 3 5 6 7 7 7 7 7 7 7 8 8
13 14 14 12 9 8 10 11 11 9 9 12 13 15 15 16 16 14 12 13 15 15 17 17 17 17 17 16 16 15 14 14 13 13 13 12 12 11 10 9 9 8 6 5 6 7 6 6 7 8 8 7 6 6 8 9 9 8 8 8 6 6 9 4 2 2 1 3 4 10 9 6 6 4 4 5 7 7 6 6 6 6 6 6 6
12 13 12 12 10 8 7 7 8 7 7 11 14 15 17 17 17 15 12 12 13 14 16 17 16 15 16 16 16 14 14 14 13 14 14 13 13 12 11 10 9 9 7 6 7 8 7 6 6 7 8 7 7 6 6 7 7 7 7 7 6 6 6 2 2 3 1 2 7 13 8 8 8 6 5 5 6 6 6 5 5 5 4 5 5
10 10 10 9 9 9 7 5 5 5 5 8 12 15 17 18 18 16 13 11 12 14 16 16 14 14 14 14 14 14 14 15 15 15 15 15 14 12 12 12 11 10 8 7 8 9 9 8 8 8 9 7 7 5 2 3 4 6 7 7 7 7 2 4 5 2 0 2 11 15 9 9 10 8 8 6 6 7 6 5 5 4 3 4 4
7 8 9 7 7 7 7 6 4 3 3 4 8 12 15 18 18 18 16 13 12 14 15 15 13 13 14 14 14 15 15 16 17 15 15 15 15 13 13 13 12 12 10 8 7 8 10 11 11 11 10 10 10 5 1 0 1 3 6 8 8 7 4 7 6 2 1 4 15 15 10 11 11 10 9 8 7 8 7 6 5 4 4 4 3
7 6 6 6 6 6 5 6 5 4 3 4 7 9 14 17 16 16 16 15 14 14 16 15 14 14 14 13 15 16 15 16 17 15 14 16 16 15 14 14 13 13 11 9 7 7 9 11 12 12 11 11 9 5 4 3 2 3 4 8 7 5 5 6 4 1 2 6 16 13 10 12 11 11 10 9 8 8 8 7 6 6 5 4 3
7 7 7 6 6 5 4 5 5 5 3 3 6 8 13 15 14 14 15 16 15 15 16 16 15 15 14 13 14 15 15 14 14 13 13 15 18 17 15 15 14 13 12 9 7 7 8 8 9 10 10 9 6 7 7 6 4 2 3 6 6 5 6 4 4 3 3 8 15 13 11 12 12 12 10 10 9 9 9 8 7 6 5 5 4
7 7 7 7 7 5 3 4 3 5 4 1 3 6 10 14 16 15 17 17 15 14 16 16 16 15 13 14 14 13 14 14 12 11 11 12 18 19 16 17 15 13 13 9 8 7 8 8 5 6 6 5 7 7 8 8 6 4 5 5 6 7 6 4 5 5 4 9 14 12 11 11 11 12 11 11 10 10 10 9 8 6 6 6 5
8 8 7 7 8 6 4 4 3 5 5 2 2 3 5 12 17 18 18 18 16 14 12 13 15 16 14 14 15 14 14 14 11 10 9 9 16 19 17 18 15 13 13 12 11 8 9 11 7 6 7 7 8 7 8 8 7 6 6 6 6 7 7 5 5 6 5 8 13 10 11 11 11 12 12 11 11 12 11 11 10 7 7 7 6
9 9 8 8 7 6 5 4 5 4 5 5 2 2 3 6 13 18 20 19 17 15 14 13 13 15 16 14 16 15 12 10 8 8 8 9 13 16 18 19 17 14 14 14 13 10 10 12 9 8 8 7 8 8 7 8 8 8 7 8 7 8 8 6 6 7 5 8 13 11 11 11 11 13 14 13 11 12 13 13 12 10 9 8 7
10 9 8 8 6 6 5 4 5 4 5 6 3 3 3 1 4 11 17 19 20 20 19 18 14 14 16 15 14 12 11 9 8 8 9 9 9 13 18 18 17 16 15 14 13 12 11 11 10 10 8 8 8 8 8 8 8 9 9 9 9 9 9 8 8 7 6 6 12 12 10 10 10 13 15 15 12 12 13 13 14 12 10 10 9
10 9 8 8 7 6 6 5 6 6 4 4 3 3 3 0 2 4 9 12 18 23 21 20 18 18 18 17 15 12 12 12 11 12 10 10 10 11 16 18 17 17 15 15 14 12 12 11 11 9 8 8 8 8 8 9 9 9 10 10 9 9 10 10 8 8 7 6 10 13 12 12 13 12 14 17 15 14 13 13 14 13 12 12 10
10 9 8 7 8 7 7 5 5 8 7 3 3 2 1 0 2 2 4 6 10 17 18 19 20 21 20 18 18 15 13 12 13 15 13 11 11 12 15 16 16 15 14 15 14 13 12 12 10 9 9 8 8 9 8 8 9 10 10 11 10 10 11 11 10 9 8 8 10 13 15 14 15 14 14 17 18 17 15 14 14 14 14 13 12
10 9 8 7 8 7 7 6 4 7 7 4 3 2 1 1 2 1 3 5 6 9 9 12 17 21 21 19 18 16 13 13 13 15 15 13 14 14 15 16 15 14 13 13 13 12 12 11 11 10 10 10 9 9 8 9 9 10 11 11 12 12 12 11 10 11 10 10 10 11 14 16 15 15 14 16 19 19 18 16 15 15 15 15 13
10 10 8 8 8 9 9 8 6 6 6 6 5 2 2 2 2 1 4 4 4 8 7 8 12 16 18 17 18 17 15 16 15 15 16 15 16 16 17 16 14 13 13 14 13 12 12 11 12 12 11 10 10 10 10 10 9 10 11 12 13 13 12 12 11 12 12 11 10 10 12 14 14 15 15 15 17 19 20 19 17 16 16 16 15
11 11 10 9 10 11 11 11 10 10 10 8 8 5 3 4 3 2 4 2 1 4 6 6 8 10 13 13 15 17 17 17 17 17 18 18 17 17 19 16 13 14 15 14 12 11 12 12 12 13 11 10 10 11 11 11 10 10 11 12 13 14 12 12 12 12 12 12 12 11 11 9 11 15 16 16 16 17 20 21 20 18 17 17 16
11 11 11 10 11 13 12 13 13 13 13 12 11 9 7 7 5 4 4 3 2 2 4 5 5 7 10 11 13 15 16 17 17 19 19 20 20 19 20 16 13 18 18 15 13 11 12 12 12 12 10 10 10 10 11 11 11 11 12 12 14 14 13 11 12 14 13 13 13 12 12 11 10 11 12 13 14 15 18 21 22 20 18 18 18
12 12 12 12 12 13 12 13 14 13 12 12 12 12 12 11 8 8 7 5 4 3 4 4 2 4 5 7 12 14 16 16 16 19 20 21 22 21 20 19 18 20 19 18 16 14 12 12 14 12 11 11 11 10 11 11 11 11 12 13 13 15 14 13 13 15 14 13 13 14 14 13 12 11 10 11 15 15 16 19 23 22 20 19 19
12 12 13 13 11 11 11 10 10 9 9 9 9 10 11 11 9 11 12 9 7 5 5 4 2 3 3 5 9 11 13 15 17 19 20 21 23 21 21 23 23 21 21 21 20 20 17 14 15 14 13 13 12 12 12 11 11 11 13 13 14 15 15 15 14 15 16 15 14 14 15 14 13 13 13 12 12 15 17 17 21 23 21 21 21
13 12 12 12 10 8 7 6 5 4 5 6 8 9 10 10 9 10 12 12 8 9 8 4 3 4 4 6 8 8 10 14 18 19 19 20 22 23 24 25 24 23 24 23 21 23 22 18 17 16 15 15 15 15 13 12 12 12 12 14 15 15 16 16 16 16 17 17 15 15 15 15 15 14 15 14 13 13 18 18 20 22 23 23 23
13 13 12 12 10 9 7 4 1 0 2 4 7 7 7 7 8 8 9 10 8 10 9 4 4 4 6 8 9 9 10 12 14 16 18 20 21 23 25 25 24 24 25 24 22 23 23 23 24 21 17 16 15 16 14 11 12 12 12 13 15 15 16 17 17 17 18 17 16 16 16 16 16 16 16 15 15 14 16 18 19 21 25 26 26
14 14 13 12 11 10 8 6 5 3 1 2 4 3 4 4 6 7 9 10 9 10 8 5 5 4 8 10 8 10 12 12 12 13 15 19 21 23 24 25 25 25 26 26 26 27 26 26 29 25 20 18 16 15 15 12 11 13 12 12 14 15 16 18 18 18 18 16 17 18 17 16 16 17 17 16 16 16 16 17 16 16 21 25 26
15 14 14 13 12 10 8 7 7 5 3 2 2 1 2 3 5 6 8 9 10 10 6 6 7 7 11 10 9 10 12 13 13 13 14 15 19 22 23 24 25 26 27 28 29 30 29 29 31 27 22 24 20 16 17 15 14 14 13 13 14 16 16 18 18 18 19 18 18 19 18 18 17 17 18 18 17 17 17 17 16 14 15 19 22
16 16 15 13 12 11 9 8 8 6 6 4 3 2 1 2 3 5 8 8 10 13 9 7 9 9 9 9 9 10 11 11 11 13 14 14 15 16 19 22 24 26 26 27 29 30 31 32 32 30 28 31 26 18 18 18 16 16 14 13 14 16 17 18 19 19 20 20 20 19 19 19 19 18 18 18 18 18 18 18 18 17 15 15 19
17 16 15 14 13 12 11 10 9 8 8 6 4 3 4 4 3 5 7 7 11 17 16 10 8 6 6 6 6 8 11 10 7 8 11 11 10 10 12 15 18 21 24 27 29 30 32 32 31 31 31 33 30 24 23 22 19 17 15 15 15 15 16 18 20 21 21 21 20 20 20 20 19 19 18 18 18 18 18 18 18 19 18 17 17
17 16 16 15 15 13 12 12 12 10 9 8 6 6 6 5 6 7 9 10 11 14 14 11 8 6 4 4 6 10 11 8 5 6 6 7 8 8 9 9 10 13 17 22 27 29 30 31 32 31 31 31 30 27 26 24 22 20 17 17 16 15 17 19 21 23 22 22 22 21 21 20 19 19 18 18 18 18 18 18 18 19 19 19 18
18 17 16 16 16 14 13 14 13 11 11 11 8 6 4 3 5 6 7 8 8 8 10 11 10 8 4 6 10 11 8 6 6 6 6 7 9 9 8 9 9 9 12 15 20 25 26 28 30 31 33 33 31 30 28 26 25 23 20 18 16 15 16 16 18 20 20 22 23 22 22 21 19 19 19 18 18 18 19 19 19 19 20 21 21
19 18 17 17 16 15 14 16 14 13 14 13 10 7 3 2 1 0 2 2 2 5 10 13 13 10 7 8 9 8 6 6 6 5 6 7 9 10 9 10 10 9 10 12 14 17 21 25 27 29 32 32 31 35 34 29 26 26 27 24 20 19 16 14 13 15 17 20 21 21 23 22 21 20 19 19 18 18 18 19 20 21 22 22 23
19 19 17 17 17 15 16 17 15 14 16 14 13 9 4 5 5 3 2 2 1 5 10 12 13 12 11 10 8 5 5 5 5 5 6 7 7 8 9 9 10 10 11 12 12 13 15 19 23 26 30 29 31 36 36 31 29 31 33 30 27 26 19 15 15 15 14 17 19 20 22 23 23 21 20 20 19 18 19 20 21 21 22 23 24
19 18 18 19 18 16 17 19 16 15 17 15 15 12 6 7 8 6 4 2 3 7 9 10 11 11 12 12 10 7 5 5 5 5 5 6 6 7 8 9 9 10 12 13 14 13 13 15 19 22 26 29 32 36 35 32 32 33 34 34 32 30 24 18 17 18 17 15 16 19 21 22 23 22 21 21 20 19 20 22 21 21 22 23 23
19 18 19 19 18 17 19 19 17 17 19 16 16 15 11 10 9 6 5 4 6 7 7 8 9 10 11 12 12 11 9 6 5 5 6 6 6 7 8 9 10 10 12 14 14 15 16 17 18 19 23 28 33 36 34 33 33 33 35 37 35 33 30 24 20 19 19 19 17 17 19 21 23 23 23 23 22 20 21 23 21 19 21 23 23
19 19 20 19 17 18 19 19 18 19 20 19 18 18 16 13 11 10 9 7 7 6 6 7 8 9 10 11 11 11 11 11 9 8 8 7 7 9 9 9 10 11 12 14 16 17 20 22 21 20 22 27 31 33 33 33 34 36 38 37 36 36 34 29 26 23 20 20 22 20 17 17 20 21 22 24 24 22 22 23 22 20 19 21 21
19 20 20 19 18 18 19 19 19 20 21 21 20 19 18 16 14 13 12 10 8 8 8 9 9 9 9 10 11 11 11 12 13 13 12 12 12 11 11 10 10 11 11 13 15 17 19 21 22 23 24 26 29 32 33 34 36 37 39 40 39 38 37 35 33 29 24 22 22 24 23 18 18 19 19 22 23 23 23 23 23 21 19 19 20
Wind_Direction
84 101 134 154 166 163 148 129 101 90 82 72 67 97 138 153 162 160 165 169 167 160 152 151 148 143 135 125 124 124 122 120 110 113 119 116 126 125 122 126 125 127 129 127 124 122 120 113 101 88 84 100 120 113 117 123 127 131 127 135 152 160 162 165 160 148 128 108 104 108 113 112 106 102 101 100 98 94 88 83 81 83 89 95 95
89 105 127 156 174 169 155 139 116 97 82 71 68 98 135 153 162 167 171 174 175 162 157 156 151 148 140 131 130 129 123 115 110 112 117 122 131 126 125 132 130 132 137 134 129 122 117 112 98 83 82 94 104 108 117 116 115 115 111 127 154 160 161 166 165 147 121 108 111 113 114 110 105 104 103 100 98 94 93 94 91 85 86 88 92
85 97 110 162 179 172 160 146 127 104 81 68 77 104 132 151 166 171 173 179 181 165 162 161 155 152 142 135 136 135 132 123 117 118 122 126 133 132 131 138 135 134 141 142 133 124 119 112 95 83 84 92 91 96 109 98 99 111 110 127 155 159 160 165 171 145 110 102 109 110 111 108 106 106 103 99 97 95 96 97 91 85 84 85 89
81 93 101 154 178 175 160 146 129 105 83 71 86 100 123 141 170 177 179 185 183 166 163 164 160 157 147 144 145 142 140 130 124 125 131 134 139 139 135 142 141 135 141 146 136 125 124 113 100 86 85 92 87 99 115 86 88 113 112 130 153 156 156 158 168 125 92 84 83 88 99 104 107 104 102 99 96 97 95 91 87 85 83 84 86
88 94 99 131 163 171 159 145 125 108 93 80 88 95 118 133 166 186 196 193 179 166 163 166 166 163 157 153 153 149 146 135 131 133 138 141 145 143 139 145 145 139 138 146 142 128 123 112 104 94 86 92 94 115 136 94 91 113 115 130 147 151 149 146 148 109 88 82 78 73 72 89 104 103 103 103 100 98 93 90 89 88 85 85 84
90 106 104 110 149 162 157 149 126 112 101 88 88 94 113 126 144 158 198 197 176 168 163 168 171 171 165 156 156 154 153 145 143 145 145 145 148 145 144 150 149 146 139 146 148 132 122 113 104 98 88 89 106 132 146 113 102 115 116 128 145 149 143 141 132 101 83 78 80 83 72 72 99 105 106 104 101 97 92 92 92 92 90 89 86
92 122 123 110 144 157 154 148 126 114 102 93 88 90 106 113 125 124 168 184 171 170 165 166 172 176 169 158 159 160 161 157 156 156 155 153 151 146 145 151 150 149 144 145 145 133 123 114 105 97 88 94 127 144 148 130 115 117 117 131 145 147 145 148 130 99 83 76 77 92 90 84 99 105 105 101 97 94 91 90 92 92 90 90 87
94 116 130 128 143 152 151 142 127 120 108 100 93 89 104 115 127 123 141 167 167 173 168 163 170 175 169 164 165 168 173 171 168 164 165 160 150 150 148 149 152 155 152 147 144 136 124 116 109 102 100 125 145 154 155 141 126 122 125 138 143 149 152 147 137 104 90 88 98 100 94 97 106 105 103 101 97 94 89 83 86 89 89 91 92
90 101 118 129 140 150 149 140 133 125 115 107 102 96 101 117 136 129 133 158 162 168 168 164 170 173 171 175 173 176 181 181 178 174 171 157 148 151 150 151 157 161 158 153 146 138 129 122 122 125 128 147 157 162 158 147 136 132 136 143 144 150 153 148 136 99 87 101 112 101 99 90 95 108 105 102 97 93 87 79 82 85 85 87 92
82 88 106 127 140 151 150 146 141 131 125 119 116 114 109 118 136 135 129 149 157 163 170 167 171 175 177 184 180 181 186 186 182 180 172 154 150 152 154 157 161 163 162 159 148 142 136 137 146 149 151 160 167 168 159 156 146 142 143 146 148 147 153 148 111 88 88 106 121 136 126 111 117 112 102 97 92 89 84 78 80 80 81 83 88
82 82 99 129 144 152 152 150 146 140 137 134 130 129 132 133 138 146 140 148 158 165 173 171 176 184 185 189 186 185 190 190 183 181 170 158 158 159 165 163 164 165 162 154 143 142 133 144 160 160 165 168 174 174 164 165 152 146 147 148 150 140 142 125 87 79 90 118 153 135 110 109 147 114 102 97 94 91 87 85 83 80 82 85 87
80 84 93 128 146 151 156 154 147 147 146 141 138 140 147 155 152 161 160 156 164 171 176 178 185 192 193 192 190 192 196 194 184 179 168 162 168 167 167 161 164 164 159 147 139 140 132 149 166 168 174 176 179 176 170 174 162 151 149 149 151 140 139 122 93 84 98 136 136 97 85 144 170 120 111 103 100 98 93 91 88 87 86 88 90
74 77 82 114 148 156 161 159 154 150 148 146 144 149 154 164 171 172 176 174 182 185 186 192 194 195 195 195 195 197 198 195 181 175 168 167 172 166 161 161 167 166 160 148 144 144 145 160 172 183 181 179 183 179 178 179 168 160 156 151 151 143 140 123 97 102 127 120 99 87 121 192 184 136 117 107 104 102 96 93 91 91 90 91 94
74 70 71 82 126 168 170 164 163 153 146 148 149 159 160 167 176 176 181 186 195 197 196 197 195 195 195 197 201 199 196 191 179 174 170 172 170 164 164 168 172 170 163 154 153 152 160 164 167 189 178 178 185 184 188 187 176 171 166 156 150 145 141 119 93 119 138 103 95 97 146 162 170 147 118 108 107 106 103 100 96 94 94 95 98
70 70 72 76 85 145 177 176 167 153 146 149 156 175 173 169 173 176 180 186 196 198 199 197 196 196 198 202 202 198 194 186 183 179 173 175 174 169 170 171 171 170 164 156 155 155 163 159 158 180 175 177 182 185 192 196 192 180 176 166 152 149 142 117 97 162 128 104 106 104 169 166 161 145 120 113 114 115 114 109 104 101 99 100 100
62 64 71 77 73 86 149 177 168 157 157 161 169 188 185 173 172 176 179 183 192 197 199 198 198 199 202 203 199 194 190 185 187 184 175 181 182 177 176 173 170 168 163 156 156 159 162 159 158 167 174 178 178 184 195 204 207 202 190 174 161 152 137 114 111 165 118 117 103 106 230 216 180 160 127 123 128 125 122 115 110 109 107 106 103
67 57 60 73 73 78 101 140 162 167 176 174 180 189 187 179 174 176 178 180 187 195 197 198 200 202 202 199 195 191 187 188 191 188 184 187 187 184 181 175 170 168 164 160 162 167 166 165 165 163 175 180 181 186 199 212 213 219 210 184 171 157 143 121 112 131 138 137 97 117 239 220 188 178 131 129 137 130 126 121 118 117 114 113 107
76 66 56 64 78 88 93 110 142 165 181 184 189 191 191 186 179 175 175 178 185 193 196 200 201 201 200 194 192 191 193 194 192 193 192 191 191 189 184 176 171 169 170 166 165 172 174 177 179 174 176 180 187 195 208 220 221 225 226 204 181 166 159 125 94 92 180 133 97 178 219 213 193 174 140 139 139 133 130 126 125 125 122 121 113
82 81 73 63 71 87 95 102 119 144 167 181 191 192 193 188 183 176 174 178 183 192 197 201 201 199 198 194 194 197 201 197 195 197 194 192 192 188 184 178 172 171 175 166 162 171 175 182 188 182 178 178 184 200 213 220 227 225 230 216 192 180 172 122 75 1 207 119 122 216 219 218 209 178 155 145 141 135 131 136 136 134 132 128 120
83 86 85 78 70 70 91 105 108 124 155 175 187 191 192 189 186 180 174 177 181 191 198 200 201 199 198 198 198 200 201 197 200 201 196 196 192 186 184 180 172 173 175 159 157 164 165 171 179 180 174 174 174 189 208 217 227 221 227 216 195 182 165 124 83 107 82 158 206 235 225 207 202 184 173 152 144 139 138 153 149 146 143 137 130
81 84 86 87 87 80 84 100 109 118 151 177 188 192 192 188 185 182 174 173 178 187 195 197 197 198 199 201 199 197 197 196 201 201 199 200 195 185 181 182 173 172 175 156 151 151 149 151 157 166 162 162 162 165 189 211 228 218 214 208 184 163 151 171 174 133 37 184 230 240 222 197 196 187 187 166 149 151 159 174 170 165 160 150 140
91 88 85 88 93 94 94 93 109 125 146 176 187 191 191 187 184 185 179 171 178 186 191 193 194 196 199 201 198 198 199 195 197 197 197 198 196 187 179 182 176 174 177 160 148 144 140 137 138 140 138 136 130 131 167 209 220 210 196 188 166 144 186 232 148 136 265 176 238 241 230 210 198 191 192 176 164 168 178 192 189 180 187 178 156
96 93 89 91 97 101 104 105 112 122 127 156 177 184 185 187 189 190 185 179 182 189 192 193 193 198 201 201 202 205 204 198 194 192 193 195 196 192 182 181 180 178 179 168 149 143 140 135 134 126 117 112 107 123 227 264 184 219 191 171 151 131 248 240 144 118 197 215 247 246 237 221 202 195 193 184 180 182 189 201 202 197 207 199 183
94 99 94 88 101 111 110 112 120 119 122 143 156 175 182 186 194 196 191 190 188 189 195 196 200 206 205 204 207 209 211 203 194 191 194 196 196 193 184 183 186 183 182 177 159 149 145 138 137 124 105 104 109 147 186 197 230 283 200 156 142 153 232 224 153 176 182 233 251 251 242 224 209 202 193 189 190 192 197 208 210 204 213 206 205
100 101 91 83 92 101 113 120 126 132 129 134 149 179 195 187 188 196 195 198 195 194 199 199 206 213 208 209 215 214 214 208 198 198 200 201 199 192 183 185 189 186 186 180 171 164 153 152 147 122 96 105 142 175 173 193 223 258 205 155 152 202 226 201 174 185 191 246 253 254 242 223 215 209 199 195 196 204 206 217 222 210 216 211 208
103 99 91 91 95 93 117 127 130 147 132 125 180 195 210 192 186 194 193 198 199 201 207 205 208 215 214 213 222 220 211 209 205 205 205 205 200 191 184 186 187 188 186 173 183 185 162 175 175 129 114 145 178 185 179 193 204 194 202 190 182 208 220 206 208 194 194 253 260 258 243 223 218 214 207 203 201 210 214 222 231 222 222 220 211
98 97 95 92 98 98 104 125 148 154 129 116 216 217 227 202 194 199 197 199 200 199 211 219 214 213 216 213 222 226 213 210 206 197 202 204 194 189 186 185 184 190 187 170 188 200 170 179 186 171 178 182 188 190 191 196 199 195 198 206 199 208 217 206 220 213 197 252 258 253 245 230 222 218 210 209 208 210 217 224 228 227 229 230 220
100 97 97 92 95 99 103 140 151 153 146 128 145 196 234 216 204 205 203 200 198 194 199 216 219 214 216 216 223 227 219 218 206 192 210 212 195 193 191 185 182 192 195 179 187 197 180 184 181 179 187 190 196 196 200 205 205 201 199 210 208 209 219 208 216 223 202 248 265 259 247 239 232 228 216 210 212 211 217 225 228 228 229 232 230
102 100 100 94 90 90 95 126 130 126 156 142 122 167 175 291 238 217 211 202 198 197 196 203 213 217 216 219 230 233 226 223 206 210 225 219 209 200 193 189 187 190 197 191 193 197 186 189 187 182 187 193 204 203 204 209 213 212 205 212 213 208 218 214 215 231 211 239 276 272 252 247 243 239 228 217 213 213 216 223 228 228 231 233 231
104 103 99 96 93 88 85 100 128 120 123 148 146 170 164 51 307 261 243 220 205 203 202 204 208 213 213 213 221 226 230 228 215 221 222 208 208 199 192 196 195 191 196 197 198 201 193 194 192 186 190 199 208 211 211 211 215 219 213 214 216 211 217 218 213 226 221 218 259 270 263 256 249 244 238 227 218 215 214 219 229 229 231 235 233
108 108 100 99 101 97 94 93 139 135 113 134 161 176 155 250 289 318 285 258 225 214 212 216 214 214 216 215 215 211 220 231 226 225 225 219 215 207 200 201 199 194 199 201 199 201 200 200 195 190 198 205 211 216 219 217 217 220 217 215 216 214 214 217 213 218 224 214 237 267 272 261 251 246 241 234 225 220 215 215 227 231 230 233 234
114 115 109 109 112 111 114 104 130 142 123 119 122 148 137 348 301 66 277 278 278 254 235 233 226 221 222 223 223 217 215 222 227 229 230 234 229 219 209 201 201 203 207 208 204 203 205 202 198 199 205 205 209 218 225 226 224 222 220 217 216 216 213 214 213 215 219 218 226 255 273 273 260 246 242 241 234 225 218 214 223 229 229 231 232
120 121 114 109 115 115 117 105 97 114 112 115 100 87 127 46 353 24 296 292 297 282 273 258 245 234 230 233 232 229 226 220 224 231 231 232 229 225 218 206 202 207 214 215 208 206 208 204 201 202 202 204 211 217 226 233 231 226 222 219 218 218 215 212 213 216 216 217 220 229 259 282 275 255 245 242 241 235 224 216 220 226 226 230 231
125 124 118 111 114 111 109 102 95 94 88 95 90 73 96 74 30 0 311 324 16 294 293 286 278 262 250 249 241 233 234 229 227 232 233 231 226 223 223 215 207 212 214 214 213 215 215 210 208 206 198 200 213 219 225 231 233 231 227 219 219 223 220 213 211 217 218 216 219 220 231 256 273 273 261 246 244 242 234 224 221 227 228 229 231
133 130 125 118 117 110 107 102 96 92 85 84 81 70 75 77 52 24 344 339 31 356 319 315 309 287 272 266 255 239 237 237 232 233 234 234 229 228 229 222 220 222 216 208 208 220 225 219 216 214 205 202 214 224 229 231 231 231 230 223 218 222 223 217 211 217 221 219 219 220 223 223 237 264 267 260 260 251 243 235 228 227 229 229 232
142 140 134 127 122 112 109 104 95 90 86 80 78 70 64 64 51 34 26 9 21 27 332 336 343 293 288 273 262 250 244 244 238 235 234 232 229 234 238 233 231 231 226 217 213 218 226 230 227 219 212 212 215 223 228 231 232 231 230 226 219 218 223 222 215 217 223 226 224 222 225 225 223 232 239 253 270 266 250 242 237 232 230 229 232
151 149 145 141 136 120 112 106 96 86 77 68 67 65 58 58 46 33 29 20 16 15 350 346 344 302 297 276 264 256 250 248 245 240 234 232 230 233 239 238 235 230 227 224 222 222 221 228 234 227 221 221 221 225 228 230 232 235 232 226 221 216 218 223 220 218 220 225 228 225 227 231 228 229 229 228 247 266 260 246 242 241 237 234 232
162 161 158 156 155 146 133 117 100 74 62 46 43 46 48 49 41 33 26 23 12 356 358 350 327 320 290 279 272 264 252 247 253 251 242 239 238 236 236 237 233 227 226 226 224 224 222 225 235 236 231 228 232 231 226 230 234 236 237 228 223 218 215 218 221 220 222 224 227 227 227 233 234 232 234 228 220 242 260 252 244 244 243 240 237
173 171 169 167 168 174 181 183 174 78 5 20 41 48 49 47 43 38 25 26 13 355 4 349 321 319 285 283 279 270 261 249 253 254 246 242 242 239 237 237 235 229 229 229 227 228 228 230 235 239 237 232 235 235 226 227 234 235 239 233 223 221 217 214 216 219 224 224 224 228 228 230 234 233 234 235 222 222 246 253 247 244 241 238 238
182 181 179 178 177 184 199 216 224 230 292 32 67 68 60 42 35 34 22 23 13 359 2 344 335 296 280 288 280 269 266 261 257 254 248 243 242 242 242 242 239 235 233 234 236 237 234 236 239 240 244 243 235 235 232 224 232 240 242 239 228 223 221 215 214 217 222 224 224 228 230 229 231 232 231 233 230 222 225 243 248 243 241 241 240
190 189 188 187 187 190 198 215 228 223 203 156 161 155 67 38 29 29 18 19 12 5 356 323 317 290 284 286 273 267 264 264 260 256 253 249 247 246 248 249 246 243 240 239 240 241 238 239 242 239 240 247 242 238 238 227 229 241 240 240 236 230 227 221 219 218 220 223 224 226 228 230 231 232 231 230 231 227 218 225 234 231 236 246 246
195 193 194 194 193 192 192 212 232 233 227 213 200 227 282 334 1 5 9 19 7 5 2 323 315 311 299 288 280 273 265 263 259 256 255 254 256 253 253 253 251 248 245 243 242 241 241 241 243 240 233 240 243 239 238 231 228 236 235 238 239 234 232 229 226 223 221 221 221 222 225 229 230 229 232 231 229 230 224 220 224 225 222 233 247
199 198 199 198 198 197 192 206 223 227 239 239 199 222 276 300 318 331 347 1 358 5 11 357 338 330 316 303 292 271 261 259 257 268 268 263 265 260 255 254 254 252 246 245 244 242 242 241 242 242 235 236 241 241 240 238 234 233 233 236 237 234 234 231 228 226 224 222 222 222 223 225 227 227 227 229 228 228 229 224 221 224 220 219 234
199 202 203 200 201 202 195 205 218 218 235 248 235 252 280 293 306 320 336 353 6 15 18 9 345 324 320 306 286 270 264 262 263 274 279 278 275 270 264 254 253 258 252 247 246 244 244 243 241 240 238 238 238 239 238 234 229 228 229 235 235 234 238 234 228 229 229 224 223 224 224 223 224 226 224 226 229 230 229 228 224 223 223 218 217
201 202 205 204 202 203 200 208 222 226 239 255 257 265 279 287 316 339 358 11 23 24 14 6 353 338 311 282 289 289 280 275 274 269 269 266 256 256 267 261 246 249 259 257 250 247 244 244 242 239 239 239 235 234 233 228 227 226 224 230 234 235 246 244 227 226 229 225 225 224 223 224 221 222 225 226 228 231 232 230 228 225 223 222 215
202 203 205 208 206 204 204 211 219 230 246 258 262 262 235 209 249 27 30 23 28 4 0 2 3 357 331 299 296 302 298 289 279 271 273 262 245 239 243 252 251 243 248 257 259 255 247 244 243 239 237 236 235 236 237 236 237 234 225 221 225 231 251 271 251 233 224 219 224 225 223 224 222 222 224 227 227 229 232 231 231 230 226 224 219
200 203 205 210 210 204 207 217 218 231 250 256 260 263 235 234 258 255 276 323 322 338 349 356 4 6 355 339 322 306 296 294 288 278 276 271 262 256 246 245 255 253 243 244 253 259 256 252 248 242 239 237 238 239 239 239 242 242 232 222 222 226 242 276 277 262 240 217 215 220 223 222 222 224 224 224 227 228 230 230 231 233 230 227 222
197 201 205 212 216 206 210 224 221 232 254 258 260 261 231 240 270 277 279 292 299 323 340 351 1 4 4 1 351 335 304 287 287 285 280 277 275 272 265 257 256 259 255 251 252 254 258 259 254 246 241 239 240 241 241 241 242 242 235 226 223 222 229 249 263 268 264 246 224 216 221 224 222 225 227 226 227 228 230 231 231 233 230 228 224
195 198 208 217 220 213 219 232 229 236 255 261 262 261 248 247 261 261 258 275 301 322 334 342 352 354 356 359 359 358 348 330 308 287 281 278 272 266 264 265 264 261 262 262 259 254 249 248 249 247 243 240 240 241 241 239 239 239 234 228 224 220 221 232 245 257 263 263 252 227 215 217 220 224 227 228 230 228 229 232 232 230 229 228 224
194 199 212 221 221 221 228 237 238 244 256 261 260 261 260 255 253 255 258 267 288 305 311 318 331 338 343 347 350 357 357 351 344 329 317 307 290 274 262 263 267 262 260 260 258 253 244 237 238 241 241 242 242 241 240 238 239 239 234 230 227 225 224 224 230 241 252 260 263 254 236 225 223 223 223 225 227 227 228 231 233 228 226 226 222
195 203 215 222 221 226 234 240 244 247 255 261 260 259 260 256 252 257 261 263 272 285 295 305 314 321 327 332 335 341 344 344 345 344 340 333 324 307 285 269 263 260 261 262 260 260 253 243 241 239 238 241 244 244 242 241 241 238 234 231 232 232 230 226 226 232 241 251 259 262 260 251 235 222 222 226 226 227 227 228 229 228 224 222 219